Location: Newark
(49.3000°N, 9.4667°E)
Time: 03:34:07
(UTC+00:00)

Vanguard 1 Rocket - All Passes

Search period start: 25 May 2019 00:00
Search period end: 04 June 2019 00:00
Orbit: 652 x 4224 km, 34.3° (Epoch: 23 May)

Date Brightness Start Highest point End Pass type
(mag) Time Alt. Az. Time Alt. Az. Time Alt. Az.
25 May - 01:32:36 10° SSW 01:36:51 21° SSE 01:42:56 10° ESE visible
25 May - 03:55:06 10° WSW 04:01:20 28° S 04:11:33 10° SE daylight
25 May - 06:20:10 10° WSW 06:27:19 19° SSW 06:37:35 10° SSE daylight
26 May - 00:23:46 10° S 00:26:24 14° SSE 00:29:32 10° ESE visible
26 May - 02:45:02 10° SW 02:50:14 26° S 02:58:18 10° SE visible
26 May - 05:08:54 10° WSW 05:15:29 22° SSW 05:25:33 10° SSE daylight
27 May - 01:35:19 10° SW 01:39:27 21° SSE 01:45:17 10° ESE visible
27 May - 03:58:17 10° WSW 04:04:01 24° S 04:12:55 10° SE daylight
27 May - 06:24:45 10° SW 06:29:54 14° SSW 06:36:30 10° S daylight
28 May - 00:26:04 10° SSW 00:28:55 15° SSE 00:32:24 10° SE visible
28 May - 02:48:05 10° SW 02:52:54 23° S 03:00:08 10° SE daylight
28 May - 05:12:41 10° SW 05:18:09 17° SSW 05:25:47 10° SSE daylight
29 May - 01:38:10 10° SW 01:42:06 21° S 01:47:30 10° SE visible
29 May - 04:01:42 10° SW 04:06:44 19° S 04:13:58 10° SSE daylight
30 May - 00:28:36 10° SSW 00:31:32 16° SSE 00:35:04 10° SE visible
30 May - 02:51:17 10° SW 02:55:37 20° S 03:01:47 10° SE daylight
30 May - 05:17:29 10° SW 05:20:51 12° SSW 05:24:53 10° S daylight
30 May - 23:19:57 10° S 23:21:03 11° SSE 23:22:11 10° SSE visible
31 May - 01:41:10 10° SW 01:44:48 19° S 01:49:36 10° SE visible
31 May - 04:05:35 10° SW 04:09:27 15° SSW 04:14:28 10° SSE daylight
01 Jun - 00:31:18 10° SSW 00:34:11 16° S 00:37:35 10° SE visible
01 Jun - 02:54:44 10° SW 02:58:21 16° S 03:03:06 10° SSE daylight
01 Jun - 23:21:51 10° S 23:23:39 12° SSE 23:25:34 10° SE visible
02 Jun - 01:44:21 10° SW 01:47:31 16° S 01:51:29 10° SE visible
03 Jun - 00:34:12 10° SSW 00:36:52 15° S 00:39:56 10° SE visible
03 Jun - 02:58:53 10° SSW 03:01:06 12° SSW 03:03:41 10° S daylight
03 Jun - 23:24:14 10° SSW 23:26:18 13° S 23:28:28 10° SE visible
